TimeMDT,TemperatureF,Dew PointF,Humidity,Sea Level PressureIn,VisibilityMPH,Wind Direction,Wind SpeedMPH,Gust SpeedMPH,PrecipitationIn,Events,Conditions,WindDirDegrees,DateUTC
12:53 AM,19.0,17.1,92,30.18,10.0,SSW,4.6,-,N/A,,Mostly Cloudy,200,2013-04-16 06:53:00
1:38 AM,19.4,17.6,93,30.04,10.0,West,3.5,-,N/A,,Partly Cloudy,270,2013-04-16 07:38:00
1:53 AM,19.0,17.1,92,30.18,10.0,Calm,Calm,-,N/A,,Partly Cloudy,0,2013-04-16 07:53:00
2:53 AM,19.0,17.1,92,30.17,10.0,Calm,Calm,-,N/A,,Clear,0,2013-04-16 08:53:00
3:53 AM,19.9,17.1,89,30.18,10.0,Calm,Calm,-,N/A,,Clear,0,2013-04-16 09:53:00
4:53 AM,19.9,18.0,92,30.18,10.0,Calm,Calm,-,N/A,,Clear,0,2013-04-16 10:53:00
5:49 AM,19.4,17.6,93,30.05,10.0,Calm,Calm,-,N/A,,Mostly Cloudy,0,2013-04-16 11:49:00
5:53 AM,19.9,18.0,92,30.19,10.0,Calm,Calm,-,N/A,,Mostly Cloudy,0,2013-04-16 11:53:00
6:53 AM,21.9,19.0,89,30.19,10.0,NE,3.5,-,N/A,,Overcast,40,2013-04-16 12:53:00
7:53 AM,21.9,18.0,85,30.20,10.0,ENE,6.9,-,N/A,,Overcast,70,2013-04-16 13:53:00
8:00 AM,21.2,17.6,86,30.08,10.0,ENE,8.1,-,N/A,,Overcast,60,2013-04-16 14:00:00
8:53 AM,23.0,17.1,78,30.21,10.0,NE,8.1,-,N/A,,Overcast,50,2013-04-16 14:53:00
9:41 AM,23.0,17.6,80,30.08,2.0,NE,8.1,-,0.00,Snow,Light Snow,50,2013-04-16 15:41:00
9:53 AM,23.0,18.0,81,30.21,2.5,ENE,10.4,-,0.00,Snow,Light Snow,60,2013-04-16 15:53:00
10:05 AM,23.0,19.4,86,30.08,1.2,NE,11.5,-,0.00,Snow,Light Snow,50,2013-04-16 16:05:00
10:53 AM,24.1,19.9,84,30.22,1.2,NE,11.5,-,0.01,Snow,Light Snow,40,2013-04-16 16:53:00
11:03 AM,23.0,19.4,86,30.09,3.0,NE,10.4,-,0.00,,Overcast,40,2013-04-16 17:03:00
11:13 AM,24.8,19.4,80,30.09,1.8,NE,9.2,-,0.00,Snow,Light Snow,50,2013-04-16 17:13:00
11:34 AM,23.0,19.4,86,30.09,0.8,NE,10.4,-,0.00,Snow,Light Snow,50,2013-04-16 17:34:00
11:53 AM,24.1,19.0,81,30.23,0.8,NE,9.2,-,0.01,Snow,Light Snow,40,2013-04-16 17:53:00
12:03 PM,24.8,19.4,80,30.09,1.0,NE,9.2,-,0.00,Snow,Light Snow,50,2013-04-16 18:03:00
12:45 PM,24.8,19.4,80,30.07,2.0,NE,11.5,-,0.01,Snow,Light Snow,40,2013-04-16 18:45:00
12:47 PM,24.8,19.4,80,30.07,1.8,NNE,11.5,-,0.01,Snow,Light Snow,30,2013-04-16 18:47:00
12:53 PM,25.0,19.9,81,30.21,1.5,NNE,11.5,-,0.01,Snow,Light Snow,20,2013-04-16 18:53:00
12:58 PM,24.8,19.4,80,30.07,1.8,North,13.8,-,0.00,Snow,Light Snow,10,2013-04-16 18:58:00
1:10 PM,24.8,21.2,86,30.06,0.8,NNE,15.0,-,0.01,Snow,Light Snow,20,2013-04-16 19:10:00
1:35 PM,24.8,21.2,86,30.06,1.0,NNE,13.8,-,0.02,Snow,Light Snow,20,2013-04-16 19:35:00
1:48 PM,26.6,19.4,74,30.07,2.0,North,11.5,-,0.02,Snow,Light Snow,360,2013-04-16 19:48:00
1:53 PM,25.0,19.9,81,30.21,1.8,NNE,10.4,-,0.02,Snow,Light Snow,20,2013-04-16 19:53:00
2:01 PM,24.8,21.2,86,30.07,2.5,NNE,12.7,-,0.00,Snow,Light Snow,30,2013-04-16 20:01:00
2:09 PM,24.8,19.4,80,30.07,1.8,NE,12.7,-,0.00,Snow,Light Snow,40,2013-04-16 20:09:00
2:11 PM,24.8,19.4,80,30.07,2.0,NNE,12.7,-,0.00,Snow,Light Snow,30,2013-04-16 20:11:00
2:19 PM,24.8,19.4,80,30.07,2.0,NNE,15.0,-,0.00,Snow,Light Snow,20,2013-04-16 20:19:00
2:53 PM,25.0,19.9,81,30.22,2.5,NNE,13.8,-,0.00,Snow,Light Snow,20,2013-04-16 20:53:00
3:11 PM,24.8,21.2,86,30.08,1.0,NNE,13.8,-,0.00,Snow,Light Snow,20,2013-04-16 21:11:00
3:35 PM,24.8,19.4,80,30.08,0.8,NNE,9.2,-,0.01,Snow,Light Snow,30,2013-04-16 21:35:00
3:48 PM,24.8,21.2,86,30.10,0.5,North,10.4,-,0.02,Fog-Snow,Light Snow,10,2013-04-16 21:48:00
3:49 PM,24.1,21.0,88,30.24,0.5,North,11.5,-,0.02,Fog-Snow,Light Snow,10,2013-04-16 21:49:00
4:06 PM,23.0,21.2,93,30.09,0.8,North,13.8,-,0.01,Snow,Light Snow,10,2013-04-16 22:06:00
4:26 PM,24.8,21.2,86,30.10,1.0,NNE,10.4,-,0.02,Snow,Light Snow,20,2013-04-16 22:26:00
4:42 PM,24.8,21.2,86,30.09,0.8,NNE,10.4,-,0.02,Snow,Light Snow,20,2013-04-16 22:42:00
4:49 PM,24.8,21.2,86,30.10,0.8,NNE,9.2,-,0.03,Snow,Light Snow,20,2013-04-16 22:49:00
4:53 PM,24.1,21.9,91,30.24,0.8,NNE,10.4,-,0.03,Snow,Light Snow,20,2013-04-16 22:53:00
5:02 PM,24.8,21.2,86,30.10,0.5,NE,8.1,-,0.00,Fog-Snow,Light Snow,40,2013-04-16 23:02:00
5:18 PM,23.0,21.2,93,30.10,0.8,NE,11.5,-,0.01,Snow,Light Snow,50,2013-04-16 23:18:00
5:30 PM,23.0,19.4,86,30.11,0.8,NE,11.5,-,0.02,Snow,Light Snow,40,2013-04-16 23:30:00
5:35 PM,23.0,19.4,86,30.12,1.0,NE,9.2,-,0.02,Snow,Light Snow,40,2013-04-16 23:35:00
5:46 PM,23.0,21.2,93,30.12,0.8,NNE,6.9,-,0.02,Snow,Light Snow,30,2013-04-16 23:46:00
5:53 PM,23.0,21.0,92,30.27,0.8,NNE,6.9,-,0.02,Snow,Light Snow,30,2013-04-16 23:53:00
6:05 PM,23.0,21.2,93,30.12,0.5,NE,9.2,-,0.01,Fog-Snow,Light Snow,40,2013-04-17 00:05:00
6:19 PM,23.0,19.4,86,30.12,0.8,NE,10.4,-,0.02,Snow,Light Snow,40,2013-04-17 00:19:00
6:33 PM,21.2,19.4,93,30.12,1.0,NNE,9.2,-,0.02,Snow,Light Snow,30,2013-04-17 00:33:00
6:53 PM,21.9,19.9,92,30.28,1.5,NNE,9.2,-,0.02,Snow,Light Snow,30,2013-04-17 00:53:00
7:15 PM,21.2,19.4,93,30.12,2.0,North,8.1,-,0.00,Snow,Light Snow,10,2013-04-17 01:15:00
7:29 PM,21.2,19.4,93,30.14,2.5,North,8.1,-,0.01,,Overcast,10,2013-04-17 01:29:00
7:53 PM,21.9,19.9,92,30.28,2.0,NNE,6.9,-,0.01,Snow,Light Snow,20,2013-04-17 01:53:00
8:05 PM,21.2,19.4,93,30.15,3.0,NNE,6.9,-,0.00,Snow,Light Snow,20,2013-04-17 02:05:00
8:53 PM,21.9,19.9,92,30.30,3.0,North,5.8,-,0.00,Snow,Light Snow,10,2013-04-17 02:53:00
9:04 PM,21.2,19.4,93,30.16,5.0,North,5.8,-,N/A,,Overcast,10,2013-04-17 03:04:00
9:14 PM,21.2,19.4,93,30.16,4.0,NNE,6.9,-,N/A,,Overcast,20,2013-04-17 03:14:00
9:22 PM,21.2,19.4,93,30.17,4.0,North,8.1,-,N/A,,Overcast,10,2013-04-17 03:22:00
9:53 PM,21.0,19.0,92,30.32,8.0,North,6.9,-,N/A,,Overcast,360,2013-04-17 03:53:00
10:25 PM,21.2,19.4,93,30.18,9.0,North,8.1,-,N/A,,Overcast,350,2013-04-17 04:25:00
10:53 PM,19.9,19.0,96,30.33,6.0,North,5.8,-,0.00,Snow,Light Snow,350,2013-04-17 04:53:00
11:18 PM,19.4,19.4,100,30.17,4.0,North,6.9,-,0.00,Snow,Light Snow,360,2013-04-17 05:18:00
11:53 PM,21.0,19.0,92,30.32,5.0,North,6.9,-,0.01,Snow,Light Snow,360,2013-04-17 05:53:00